Date,TemperatureHighF,TemperatureAvgF,TemperatureLowF,DewpointHighF,DewpointAvgF,DewpointLowF,HumidityHigh,HumidityAvg,HumidityLow,PressureMaxIn,PressureMinIn,WindSpeedMaxMPH,WindSpeedAvgMPH,GustSpeedMaxMPH,PrecipitationSumIn
2013-1-2,55.9,42.9,29.7,36.5,32.6,28.3,96,71,40,0.00,0.00,4,2,8,0.00
2013-1-3,56.5,37.7,24.2,40.2,31.0,22.8,96,80,38,0.00,0.00,3,1,6,0.00
2013-1-4,31.6,31.6,31.6,30.4,30.4,30.4,95,95,95,0.00,0.00,0,0,1,0.00
2013-1-8,64.4,48.6,41.0,49.5,44.6,39.9,96,87,54,0.00,0.00,4,1,8,0.00
2013-1-9,50.0,43.8,38.0,46.3,41.6,36.4,98,92,64,0.00,0.00,10,2,21,0.00
2013-1-23,49.3,48.0,46.6,47.5,46.6,45.4,97,95,86,0.00,0.00,4,2,7,0.00
2013-1-24,58.3,51.8,46.9,53.0,49.6,46.2,98,92,81,0.00,0.00,5,2,12,0.54
2013-1-25,62.4,53.7,47.8,54.2,50.7,46.8,98,90,70,0.00,0.00,3,1,5,0.00
2013-1-26,49.1,46.7,42.5,47.7,45.6,41.6,96,96,94,0.00,0.00,3,2,7,0.00
2013-2-1,71.1,56.4,40.9,46.3,42.2,39.0,94,64,37,0.00,0.00,3,2,5,0.00
2013-2-2,61.1,45.3,33.5,48.1,40.7,32.6,97,85,58,0.00,0.00,5,2,9,0.00
2013-2-3,64.6,47.6,36.2,48.0,42.2,35.3,97,84,49,0.00,0.00,5,2,9,0.00
2013-2-4,38.2,37.0,36.2,37.4,36.2,35.3,97,97,96,0.00,0.00,2,1,3,0.00
2013-2-7,52.8,41.9,35.0,36.9,35.6,33.3,95,80,54,0.00,0.00,10,3,17,0.00
2013-2-8,58.2,43.2,30.6,36.5,33.7,28.9,97,73,33,0.00,0.00,9,4,20,0.16
2013-2-9,63.2,44.1,31.9,34.5,31.3,23.5,91,65,22,0.00,0.00,7,3,12,0.00
2013-2-10,67.2,43.9,27.0,38.6,33.1,25.4,94,71,28,0.00,0.00,6,2,9,0.00
2013-2-11,64.6,41.2,33.9,37.8,34.6,31.5,92,79,36,0.00,0.00,4,2,8,0.00
2013-2-12,63.8,45.1,28.1,42.5,36.3,27.0,96,75,40,0.00,0.00,5,2,10,0.00
2013-2-13,68.5,46.9,29.9,46.3,38.5,28.8,97,77,42,0.00,0.00,5,2,9,0.00
2013-2-14,72.9,50.1,32.5,48.5,40.2,31.5,97,74,36,0.00,0.00,6,2,10,0.00
2013-2-15,74.3,51.0,31.3,45.3,37.9,30.1,96,68,27,0.00,0.00,5,2,9,0.00
2013-2-16,58.7,45.4,39.2,41.9,38.7,36.2,89,78,53,0.00,0.00,5,2,10,0.00
2013-2-18,54.0,53.7,53.1,41.4,40.6,40.3,63,61,60,0.00,0.00,4,4,9,0.00
2013-2-19,49.0,42.6,36.2,40.3,34.2,31.1,95,73,53,0.00,0.00,11,5,22,0.00
2013-2-20,58.0,44.1,36.4,34.2,31.5,29.8,78,63,39,0.00,0.00,10,7,24,0.16
2013-2-26,72.4,56.1,38.0,34.8,31.9,30.0,74,43,21,0.00,0.00,7,4,14,0.00
2013-2-27,70.9,54.5,36.8,47.2,36.2,29.0,81,53,25,0.00,0.00,9,4,16,0.00
2013-2-28,71.4,58.5,47.9,52.4,48.5,44.5,89,71,49,0.00,0.00,8,4,16,0.00
2013-3-1,76.1,58.0,42.2,50.2,46.0,40.7,96,70,30,0.00,0.00,6,3,11,0.00
2013-3-6,55.8,46.5,35.8,43.0,39.7,34.6,96,78,56,0.00,0.00,9,3,20,0.00
2013-3-7,54.2,43.7,32.3,42.6,36.9,31.3,97,79,52,0.00,0.00,5,2,10,0.00
2013-3-8,62.8,48.4,38.4,40.7,37.5,34.3,86,68,42,0.00,0.00,11,6,21,0.00
2013-3-9,71.1,53.8,40.6,42.5,37.5,32.5,81,57,26,0.00,0.00,8,5,16,0.00
2013-3-10,74.1,55.4,42.0,43.3,38.7,35.9,87,58,29,0.00,0.00,7,3,12,0.00
2013-3-11,42.0,39.3,36.7,38.3,37.1,35.1,95,92,87,0.00,0.00,2,1,3,0.00
2013-3-13,79.3,62.7,39.0,53.5,46.7,38.0,97,62,26,0.00,0.00,5,2,10,0.00
2013-3-14,75.8,57.0,44.0,52.8,44.9,38.3,97,69,28,0.00,0.00,9,3,17,0.00
2013-3-15,76.4,58.4,47.6,47.8,44.2,40.5,83,62,33,0.00,0.00,10,4,19,0.00
2013-3-16,73.4,59.1,47.4,45.7,42.1,38.1,81,57,30,0.00,0.00,11,6,20,0.00
2013-3-17,71.6,55.4,44.7,43.2,39.1,33.8,83,58,27,0.00,0.00,10,5,20,0.00
2013-3-18,67.7,54.1,39.6,47.5,41.2,34.3,89,64,39,0.00,0.00,5,2,10,0.00
2013-3-19,59.7,51.1,38.8,50.2,40.8,30.2,94,70,38,0.00,0.00,7,2,13,0.00
2013-3-20,60.9,52.1,45.9,53.0,48.2,41.7,96,87,71,0.00,0.00,5,3,12,0.10
2013-3-21,65.1,51.3,40.6,42.1,39.0,37.0,89,65,38,0.00,0.00,8,5,17,0.29
2013-3-22,66.9,52.4,41.8,37.7,34.3,28.1,75,53,29,0.00,0.00,9,6,18,0.00
2013-3-23,72.0,52.4,36.4,44.1,37.0,30.4,89,60,25,0.00,0.00,6,2,12,0.00
2013-3-24,72.8,53.9,37.3,45.8,40.8,35.0,93,66,35,0.00,0.00,7,2,13,0.00
2013-3-25,61.4,48.0,35.4,48.0,41.8,34.2,97,81,51,0.00,0.00,7,3,14,0.00
2013-3-26,67.2,50.9,38.3,48.9,43.5,37.1,96,78,49,0.00,0.00,7,3,13,0.00
2013-3-27,60.9,52.0,40.9,50.5,46.7,39.4,96,83,67,0.00,0.00,7,2,12,0.00
2013-3-28,63.6,53.6,45.0,52.7,49.0,44.0,97,85,66,0.00,0.00,5,2,10,0.00
2013-3-29,76.3,58.2,40.2,53.6,47.9,39.4,98,73,40,0.00,0.00,7,3,15,0.01
2013-3-30,65.5,57.0,51.5,53.1,50.5,46.8,95,80,57,0.00,0.00,10,3,16,0.00
2013-3-31,60.5,54.6,50.7,53.4,52.0,49.7,97,91,73,0.00,0.00,6,2,12,0.06
2013-4-1,66.6,55.9,47.0,52.7,50.2,45.6,98,82,58,0.00,0.00,7,2,13,0.22
2013-4-2,70.1,55.6,40.4,56.0,49.1,39.7,97,81,57,0.00,0.00,7,3,12,0.00
2013-4-3,74.3,57.0,46.8,55.5,49.8,46.1,98,80,46,0.00,0.00,8,3,14,0.00
2013-4-4,61.5,54.4,48.3,56.9,51.7,47.0,97,91,79,0.00,0.00,8,4,16,0.00
2013-4-5,64.1,56.4,50.5,53.3,50.9,47.8,97,83,62,0.00,0.00,6,2,12,0.47
2013-4-6,52.2,51.3,49.7,51.1,49.6,47.9,96,94,92,0.00,0.00,3,2,6,0.00
2013-4-10,85.0,73.8,59.0,51.4,49.5,45.9,68,45,26,0.00,0.00,13,7,22,0.00
2013-4-11,74.5,60.2,49.5,48.6,44.5,41.8,78,58,35,0.00,0.00,11,7,23,0.00
2013-4-12,79.0,60.5,41.8,53.5,43.9,38.9,92,58,26,0.00,0.00,9,4,15,0.00
2013-4-13,73.3,59.8,50.0,46.4,40.7,36.1,66,51,33,0.00,0.00,14,8,23,0.00
2013-4-14,71.9,55.8,46.2,43.1,36.0,24.4,81,50,21,0.00,0.00,14,9,29,0.00
2013-4-15,61.0,51.6,44.0,41.5,34.3,30.8,82,54,35,0.00,0.00,15,9,31,0.00
2013-4-16,68.5,53.7,40.6,38.1,32.3,25.1,70,48,21,0.00,0.00,13,8,23,0.00
2013-4-17,74.5,57.0,42.2,37.7,34.1,26.0,78,48,19,0.00,0.00,10,5,17,0.00
2013-4-18,80.0,61.5,46.3,44.5,39.4,36.4,73,49,21,0.00,0.00,8,3,18,0.00
2013-4-19,77.0,52.8,42.8,48.2,43.9,40.3,93,75,34,0.00,0.00,6,2,12,0.00
2013-4-23,88.2,71.9,48.0,47.0,35.3,22.4,82,33,11,0.00,0.00,11,5,16,0.00
2013-4-24,70.6,53.9,40.9,49.6,44.5,38.4,97,73,44,0.00,0.00,8,4,16,0.00
2013-4-25,70.7,55.0,45.4,50.4,46.0,42.6,91,73,49,0.00,0.00,7,3,12,0.00
2013-4-26,75.6,56.9,41.8,54.8,47.3,39.5,93,73,45,0.00,0.00,6,3,12,0.00
2013-4-27,81.6,59.8,44.8,54.2,48.1,42.0,94,70,34,0.00,0.00,7,3,14,0.00
2013-4-28,88.4,62.0,40.5,56.8,45.8,38.5,95,63,24,0.00,0.00,6,2,11,0.00
2013-4-29,89.6,71.9,59.6,51.5,46.9,44.1,58,43,26,0.00,0.00,13,6,21,0.00
2013-4-30,85.4,68.4,52.6,44.9,40.0,33.6,64,39,19,0.00,0.00,11,6,20,0.00
2013-5-1,87.6,72.8,51.1,39.9,23.7,10.9,57,20,7,0.00,0.00,10,6,25,0.00
2013-5-2,93.2,69.4,41.8,40.0,35.0,27.2,75,36,11,0.00,0.00,10,3,16,0.00
2013-5-3,94.2,71.8,40.9,46.3,39.8,33.6,88,39,14,0.00,0.00,9,2,17,0.00
2013-5-4,90.7,68.3,48.9,49.8,41.8,30.9,83,47,13,0.00,0.00,12,4,20,0.00
2013-5-5,62.7,58.0,52.9,50.3,48.1,47.0,84,70,58,0.00,0.00,7,4,15,0.00
2013-5-6,70.9,61.3,48.5,50.7,48.3,45.9,92,64,42,0.00,0.00,7,3,16,0.00
2013-5-7,72.8,60.8,46.8,50.6,48.0,44.2,92,66,41,0.00,0.00,9,3,15,0.00
2013-5-8,68.7,56.7,48.6,53.4,49.8,46.2,95,79,57,0.00,0.00,6,3,14,0.00
2013-5-9,75.6,58.8,42.9,54.7,48.7,40.7,94,72,48,0.00,0.00,7,3,13,0.00
2013-5-10,80.9,62.1,45.7,58.4,50.9,44.0,94,70,44,0.00,0.00,6,3,12,0.00
2013-5-11,89.8,64.1,44.2,59.8,51.0,41.3,97,68,33,0.00,0.00,7,3,15,0.00
2013-5-12,88.0,65.1,43.0,61.7,51.2,41.0,94,65,39,0.00,0.00,7,2,14,0.00
2013-5-13,90.0,66.0,44.8,56.9,49.1,41.6,94,60,30,0.00,0.00,14,5,23,0.00
2013-5-14,88.9,71.3,58.6,49.0,45.8,40.3,65,43,23,0.00,0.00,12,6,22,0.00
2013-5-15,81.6,65.1,51.9,45.6,42.1,38.9,65,45,26,0.00,0.00,13,7,21,0.00
2013-5-16,74.7,65.1,53.7,50.6,47.0,42.3,71,53,35,0.00,0.00,13,6,21,0.00
2013-5-17,77.5,61.6,48.7,47.5,41.5,28.2,81,53,18,0.00,0.00,11,5,19,0.00
2013-5-18,80.7,64.2,49.4,49.8,44.5,37.4,80,52,27,0.00,0.00,12,6,26,0.00
2013-5-19,88.6,69.4,53.3,46.9,43.5,35.6,68,44,16,0.00,0.00,9,5,18,0.00
2013-5-20,92.4,73.4,52.3,47.7,42.9,33.2,73,40,13,0.00,0.00,10,4,18,0.00
2013-5-21,73.1,60.8,48.5,45.6,40.7,34.6,83,50,31,0.00,0.00,13,8,34,0.00
2013-5-22,69.1,56.5,45.8,38.7,33.0,26.5,65,43,22,0.00,0.00,13,8,29,0.00
2013-5-23,74.7,58.2,45.5,41.2,37.7,32.8,73,50,22,0.00,0.00,13,6,23,0.00
2013-5-24,78.2,60.7,47.1,43.0,40.0,33.8,85,50,22,0.00,0.00,8,5,19,0.00
2013-5-25,79.3,61.9,47.3,46.2,41.0,35.0,76,50,21,0.00,0.00,11,5,20,0.00
2013-5-26,76.8,63.5,50.5,49.6,44.8,36.4,87,55,25,0.00,0.00,12,6,24,0.00
2013-5-27,64.2,57.9,52.3,55.7,49.8,43.1,96,75,61,0.00,0.00,7,4,15,0.00
2013-5-28,73.3,59.9,55.1,56.6,54.5,53.2,97,84,49,0.00,0.00,6,2,13,0.16
2013-5-29,80.1,68.6,56.4,52.0,48.5,45.2,79,51,33,0.00,0.00,12,7,20,0.00
2013-5-30,84.3,65.8,50.5,45.5,43.2,38.0,76,48,24,0.00,0.00,11,6,22,0.00
2013-5-31,94.1,72.0,53.5,52.1,45.3,42.6,66,42,20,0.00,0.00,9,5,19,0.00
2013-6-1,95.6,75.8,59.6,54.2,45.8,41.4,51,36,23,0.00,0.00,10,7,21,0.00
2013-6-2,90.1,73.1,59.1,54.6,48.9,45.0,67,44,27,0.00,0.00,11,5,21,0.00
2013-6-3,73.2,62.0,47.8,53.5,50.0,43.4,88,66,49,0.00,0.00,7,4,16,0.00
2013-6-4,70.5,57.1,51.8,53.0,49.6,47.5,87,77,54,0.00,0.00,6,3,13,0.00
2013-6-5,77.3,60.0,53.6,55.6,51.1,48.6,87,74,47,0.00,0.00,6,3,14,0.00
2013-6-6,84.8,63.3,51.9,59.5,52.0,48.5,89,70,42,0.00,0.00,6,3,11,0.00
2013-6-7,97.8,71.2,50.9,63.9,55.7,48.6,93,64,31,0.00,0.00,5,2,11,0.00
2013-6-8,99.5,73.2,55.5,65.6,56.9,51.0,87,61,33,0.00,0.00,7,3,15,0.00
2013-6-9,70.2,60.8,51.2,54.9,52.2,48.0,90,74,58,0.00,0.00,7,4,16,0.00
2013-6-10,62.2,58.5,55.5,54.6,53.3,51.9,94,83,72,0.00,0.00,5,3,12,0.00
2013-6-11,81.1,65.0,47.0,58.8,51.1,38.0,94,65,26,0.00,0.00,6,3,13,0.01
2013-6-12,85.1,67.0,51.9,44.8,42.6,40.9,70,44,23,0.00,0.00,11,6,24,0.00
2013-6-13,83.4,67.2,53.0,46.7,42.1,37.1,60,43,20,0.00,0.00,10,6,19,0.00
2013-6-14,90.6,71.4,54.9,47.9,43.2,33.6,67,41,14,0.00,0.00,7,4,16,0.00
2013-6-15,86.0,66.6,44.1,55.1,45.3,37.7,86,51,18,0.00,0.00,9,3,17,0.00
2013-6-16,88.5,68.6,45.9,49.9,45.6,40.7,89,50,21,0.00,0.00,9,4,20,0.00
2013-6-17,83.5,65.6,54.3,52.7,47.8,44.8,72,54,32,0.00,0.00,13,5,19,0.00
2013-6-18,76.3,63.3,52.2,50.5,45.4,40.8,81,55,29,0.00,0.00,10,6,25,0.00
2013-6-19,78.0,63.8,50.0,46.5,44.2,40.2,80,52,28,0.00,0.00,10,6,21,0.00
2013-6-20,84.0,67.5,53.7,45.8,42.4,35.5,69,44,18,0.00,0.00,10,6,20,0.00
2013-6-21,89.9,72.2,55.4,47.1,43.3,38.7,65,39,18,0.00,0.00,9,5,18,0.00
2013-6-22,92.2,74.1,59.6,52.0,45.2,38.7,62,39,16,0.00,0.00,10,6,21,0.00
2013-6-23,71.0,65.6,59.3,60.4,55.9,52.0,87,71,56,0.00,0.00,8,4,15,0.00
2013-6-24,61.5,58.4,56.1,57.2,55.8,54.4,96,91,83,0.00,0.00,5,3,10,0.00
2013-6-25,63.3,61.1,57.8,61.9,59.8,56.7,97,96,92,0.00,0.00,6,4,13,0.18
2013-6-26,79.3,68.3,60.9,64.8,62.4,60.1,98,83,58,0.00,0.00,5,2,10,0.38
2013-6-27,96.7,74.6,56.5,65.9,60.5,55.8,98,68,26,0.00,0.00,7,2,12,0.00
2013-6-28,103.1,83.2,63.6,64.9,57.7,48.6,87,48,18,0.00,0.00,10,4,18,0.00
2013-6-29,107.0,85.9,65.8,58.5,54.7,49.0,71,38,15,0.00,0.00,8,4,15,0.00
2013-6-30,103.6,84.6,63.7,63.1,56.3,51.2,80,41,19,0.00,0.00,7,4,14,0.00
2013-7-1,102.3,79.7,57.6,67.7,60.9,54.6,91,58,27,0.00,0.00,6,2,12,0.00
2013-7-2,97.2,76.3,61.6,67.7,60.0,55.4,80,59,37,0.00,0.00,8,4,17,0.00
2013-7-3,91.5,73.2,58.9,66.5,59.3,55.5,89,65,42,0.00,0.00,7,3,14,0.00
2013-7-4,107.1,86.1,66.9,72.8,54.9,42.8,71,39,16,0.00,0.00,11,5,22,0.00
2013-7-5,87.3,72.0,59.9,59.2,51.8,43.5,71,50,34,0.00,0.00,7,4,17,0.00
2013-7-6,82.7,65.9,52.7,59.5,53.6,48.8,87,66,45,0.00,0.00,6,3,13,0.00
2013-7-7,83.8,64.2,52.8,58.0,52.9,50.1,92,70,41,0.00,0.00,7,3,13,0.00
2013-7-8,86.1,64.8,52.8,57.5,52.8,50.4,92,70,34,0.00,0.00,6,3,13,0.00
2013-7-9,94.1,70.9,51.7,56.5,51.4,45.1,96,59,19,0.00,0.00,6,2,13,0.00
2013-7-10,85.7,66.3,50.9,54.7,51.1,48.2,94,63,28,0.00,0.00,7,4,15,0.00
2013-7-11,80.3,61.9,51.6,56.2,51.0,48.4,91,71,42,0.00,0.00,6,3,14,0.00
2013-7-12,82.8,63.9,53.4,58.1,52.7,50.1,89,70,41,0.00,0.00,6,3,13,0.00
2013-7-13,88.0,66.2,45.6,56.4,50.1,42.1,91,61,23,0.00,0.00,7,3,14,0.00
2013-7-14,84.8,63.6,48.1,56.8,51.6,45.4,95,69,37,0.00,0.00,7,3,13,0.00
2013-7-15,74.0,59.0,51.0,54.4,50.8,48.5,94,76,50,0.00,0.00,7,4,15,0.00
2013-7-16,72.7,59.7,52.7,56.0,52.0,48.0,93,77,53,0.00,0.00,6,3,14,0.00
2013-7-17,84.6,64.9,47.5,59.0,52.8,45.0,92,68,39,0.00,0.00,6,2,12,0.00
2013-7-18,88.9,66.7,51.1,58.4,53.7,48.5,97,68,34,0.00,0.00,6,3,13,0.00
2013-7-19,92.3,67.0,48.1,61.9,53.1,45.3,97,66,33,0.00,0.00,6,3,13,0.00
2013-7-20,92.7,67.6,48.3,61.1,53.1,45.0,91,64,34,0.00,0.00,7,3,14,0.00
2013-7-21,86.9,65.7,49.3,57.4,51.8,46.1,92,65,35,0.00,0.00,6,3,13,0.00
2013-7-22,87.3,66.4,47.9,57.1,51.2,44.1,89,63,28,0.00,0.00,7,3,15,0.00
2013-7-23,81.3,70.4,58.9,57.3,54.5,51.4,80,59,37,0.00,0.00,6,3,12,0.00
2013-7-24,90.3,70.9,54.4,60.9,55.4,51.2,90,62,34,0.00,0.00,6,3,14,0.00
2013-7-25,85.8,67.5,53.8,59.1,54.2,50.8,91,66,40,0.00,0.00,6,4,13,0.00
2013-7-26,85.3,65.2,53.1,59.5,53.4,50.3,92,69,41,0.00,0.00,6,4,12,0.00
2013-7-27,81.7,63.4,53.7,58.4,53.2,50.1,91,72,45,0.00,0.00,6,3,12,0.00
2013-7-28,78.8,61.1,52.7,56.7,51.9,49.5,93,74,46,0.00,0.00,6,3,14,0.00
2013-7-29,73.5,59.0,52.4,55.7,51.8,49.7,93,78,53,0.00,0.00,6,3,15,0.00
2013-7-30,78.3,62.5,52.4,58.3,53.1,49.7,91,74,50,0.00,0.00,6,3,12,0.00
2013-7-31,82.2,66.4,52.5,59.0,51.6,41.1,93,63,24,0.00,0.00,6,3,13,0.00
2013-8-1,87.9,67.9,46.1,54.9,48.9,43.3,91,55,22,0.00,0.00,8,4,17,0.00
2013-8-2,88.0,70.5,52.7,52.8,49.8,47.0,81,51,29,0.00,0.00,8,3,17,0.00
2013-8-3,84.9,63.3,46.6,56.4,50.5,41.8,88,66,35,0.00,0.00,6,3,14,0.00
2013-8-4,78.5,60.6,51.8,55.7,51.6,48.9,93,75,44,0.00,0.00,7,3,14,0.00
2013-8-5,79.5,61.4,51.9,54.7,51.4,48.7,92,73,36,0.00,0.00,7,3,14,0.00
2013-8-6,78.0,59.9,51.8,55.2,51.3,49.4,92,76,43,0.00,0.00,7,3,14,0.00
2013-8-7,73.0,62.0,55.0,55.7,52.6,50.3,90,72,54,0.00,0.00,7,3,16,0.00
2013-8-8,77.8,63.8,55.0,57.6,54.1,50.7,91,72,49,0.00,0.00,7,3,15,0.00
2013-8-9,77.8,61.5,53.6,56.6,52.9,50.7,92,75,48,0.00,0.00,7,4,15,0.00
2013-8-10,80.4,64.5,56.1,58.0,54.3,52.1,88,72,44,0.00,0.00,6,3,13,0.00
2013-8-11,84.6,66.2,53.5,60.2,54.9,49.8,92,70,42,0.00,0.00,6,3,13,0.00
2013-8-12,85.7,64.4,52.2,56.8,52.8,50.2,96,71,35,0.00,0.00,6,3,12,0.00
2013-8-13,94.1,69.7,46.3,56.6,48.3,40.5,92,54,19,0.00,0.00,7,3,14,0.00
2013-8-14,97.6,72.0,46.7,58.6,49.5,40.6,88,53,14,0.00,0.00,7,3,15,0.00
2013-8-15,92.7,73.7,52.9,64.3,59.2,50.2,92,64,35,0.00,0.00,7,3,14,0.00
2013-8-16,92.7,73.6,55.0,63.0,58.1,51.0,91,64,31,0.00,0.00,6,2,13,0.00
2013-8-17,90.5,75.1,51.9,59.6,55.4,49.0,92,55,31,0.00,0.00,6,3,12,0.00
2013-8-18,98.5,78.5,54.0,63.2,57.9,50.0,88,54,30,0.00,0.00,8,2,17,0.00
2013-8-19,87.9,72.8,59.7,64.4,58.2,54.4,84,62,40,0.00,0.00,6,2,12,0.00
2013-8-20,85.0,67.0,58.5,59.1,56.1,54.4,88,71,38,0.00,0.00,7,4,14,0.00
2013-8-21,82.0,65.6,54.1,56.7,54.8,48.3,93,71,39,0.00,0.00,6,3,14,0.00
2013-8-22,79.2,62.6,52.8,57.8,53.1,48.3,91,73,48,0.00,0.00,5,3,11,0.00
2013-8-23,84.6,66.5,50.4,59.3,52.5,46.8,89,64,40,0.00,0.00,6,2,14,0.00
2013-8-24,87.7,70.2,47.4,57.0,53.1,43.3,88,58,35,0.00,0.00,12,4,23,0.00
2013-8-25,81.1,68.2,54.5,59.8,56.0,51.7,91,68,36,0.00,0.00,8,3,16,0.00
2013-8-26,88.4,72.0,59.0,57.3,53.0,47.4,89,56,26,0.00,0.00,8,3,16,0.00
2013-8-27,90.0,70.9,49.7,55.4,50.9,45.1,87,53,28,0.00,0.00,9,3,15,0.00
2013-8-28,88.4,68.4,50.9,62.8,56.4,46.8,97,69,40,0.00,0.00,7,2,15,0.00
2013-8-29,90.6,72.1,56.9,62.0,59.4,53.3,93,68,35,0.00,0.00,9,3,15,0.00
2013-8-30,96.3,76.8,56.0,59.6,56.1,51.4,94,55,24,0.00,0.00,6,3,16,0.00
2013-8-31,90.1,71.1,50.7,56.9,52.8,46.7,87,56,24,0.00,0.00,6,3,14,0.00
2013-9-1,87.2,68.4,50.0,58.0,53.9,46.3,95,64,34,0.00,0.00,9,3,16,0.00
2013-9-2,86.2,70.5,52.0,60.0,56.1,49.0,91,63,40,0.00,0.00,9,3,17,0.00
2013-9-3,87.2,69.2,50.8,55.1,51.0,45.1,90,57,24,0.00,0.00,9,3,16,0.00
2013-9-4,88.9,69.3,48.5,54.9,51.5,41.2,91,58,20,0.00,0.00,8,3,16,0.00
2013-9-5,84.8,69.5,51.0,53.7,51.3,48.4,92,56,30,0.00,0.00,8,4,19,0.00
2013-9-6,95.6,73.3,57.8,53.6,49.7,45.6,77,49,18,0.00,0.00,8,3,15,0.00
2013-9-7,97.4,72.6,48.3,52.0,46.3,42.7,85,47,16,0.00,0.00,5,2,12,0.00
2013-9-8,97.6,70.7,47.7,54.7,49.0,42.5,86,52,21,0.00,0.00,6,2,13,0.00
2013-9-9,101.6,71.1,49.7,57.7,50.6,44.6,83,56,16,0.00,0.00,9,3,17,0.00
2013-9-10,75.7,63.1,54.3,59.0,55.6,51.3,94,78,55,0.00,0.00,7,3,16,0.00
2013-9-11,71.3,63.8,59.0,59.0,57.9,55.8,94,81,65,0.00,0.00,4,2,9,0.00
2013-9-12,83.8,68.1,57.1,62.3,58.2,53.9,89,72,48,0.00,0.00,6,2,12,0.00
2013-9-13,87.8,66.7,53.0,59.7,55.3,49.8,96,71,35,0.00,0.00,6,2,11,0.00
2013-9-14,84.1,63.3,48.3,59.4,52.9,44.9,96,72,42,0.00,0.00,6,2,11,0.00
2013-9-15,85.0,63.6,44.9,57.1,51.9,42.7,97,70,38,0.00,0.00,10,2,16,0.00
2013-9-16,87.9,67.3,49.9,56.6,52.5,47.2,97,65,29,0.00,0.00,6,2,14,0.00
2013-9-17,78.8,66.3,52.9,52.0,50.2,47.0,86,59,36,0.00,0.00,10,5,23,0.00
2013-9-18,88.3,68.8,55.0,48.5,45.3,33.6,74,48,15,0.00,0.00,7,4,15,0.00
2013-9-19,90.8,70.3,45.4,47.7,41.4,30.7,82,42,16,0.00,0.00,6,3,13,0.00
2013-9-20,79.6,61.0,40.6,58.3,48.9,37.4,91,67,44,0.00,0.00,10,3,18,0.00
2013-9-21,70.0,61.1,50.9,60.1,55.0,49.1,96,82,51,0.00,0.00,11,4,20,0.00
2013-9-22,74.9,61.2,49.8,52.1,49.4,46.0,95,69,37,0.00,0.00,7,4,20,0.19
2013-9-23,85.2,68.9,55.9,58.2,53.0,49.6,80,59,34,0.00,0.00,8,4,16,0.00
2013-9-24,78.0,65.8,56.3,50.2,48.3,46.0,72,55,34,0.00,0.00,10,5,21,0.00
2013-9-25,72.5,58.9,45.6,46.5,42.8,38.5,92,60,29,0.00,0.00,9,5,20,0.00
2013-9-26,78.3,61.6,45.9,43.4,39.4,34.7,75,48,22,0.00,0.00,8,4,16,0.00
2013-9-27,82.1,61.9,46.0,43.4,39.7,29.1,80,50,15,0.00,0.00,8,3,14,0.00
2013-9-28,81.7,60.9,40.0,52.7,41.5,32.6,91,57,18,0.00,0.00,7,2,14,0.00
2013-9-29,70.5,61.6,53.4,62.2,57.1,49.7,96,85,69,0.00,0.00,6,2,11,0.00
2013-9-30,74.5,63.6,54.0,63.5,57.6,45.4,96,82,53,0.00,0.00,6,3,14,0.05
2013-10-1,77.3,61.6,51.1,47.9,46.1,42.4,86,60,31,0.00,0.00,9,5,19,0.06
2013-10-2,77.8,62.1,51.4,46.3,43.3,38.8,77,53,25,0.00,0.00,10,6,21,0.00
2013-10-3,75.8,63.9,53.3,39.1,31.8,18.7,54,34,12,0.00,0.00,10,6,23,0.00
2013-10-4,82.9,68.9,55.8,29.7,24.3,20.1,34,20,10,0.00,0.00,9,5,26,0.00
2013-10-5,86.9,61.4,37.8,51.5,29.4,17.4,69,37,9,0.00,0.00,5,2,9,0.00
2013-10-6,85.3,58.7,37.8,40.9,33.9,29.1,77,47,13,0.00,0.00,5,2,10,0.00
2013-10-7,86.0,61.4,39.2,44.7,34.2,28.3,77,44,13,0.00,0.00,6,2,13,0.00
2013-10-8,79.5,61.9,50.3,45.4,43.0,40.8,77,53,25,0.00,0.00,7,4,15,0.00
2013-10-9,76.2,61.5,50.9,42.0,38.9,32.9,70,47,21,0.00,0.00,10,5,26,0.00
2013-10-10,76.1,59.7,43.4,43.9,38.7,36.5,80,50,26,0.00,0.00,5,2,13,0.00
2013-10-11,72.6,54.6,39.5,47.3,42.5,36.4,96,68,33,0.00,0.00,5,2,11,0.00
2013-10-12,77.6,54.6,35.4,46.8,40.2,32.7,94,64,24,0.00,0.00,8,3,19,0.00
2013-10-13,78.8,58.1,39.2,44.5,40.5,34.2,91,58,20,0.00,0.00,7,2,11,0.00
2013-10-14,83.5,56.2,37.4,40.6,36.2,33.3,88,55,17,0.00,0.00,8,2,14,0.00
2013-10-15,86.1,58.8,37.7,37.2,31.0,17.8,83,45,9,0.00,0.00,7,2,14,0.00
2013-10-16,82.7,56.7,34.2,35.0,31.4,27.5,81,46,14,0.00,0.00,5,2,10,0.00
2013-10-17,86.1,59.4,38.4,37.6,33.1,28.9,75,45,13,0.00,0.00,4,2,9,0.00
2013-10-18,82.8,60.9,34.0,41.2,36.9,29.4,86,48,21,0.00,0.00,5,2,11,0.00
2013-10-19,85.4,60.0,33.2,39.8,36.4,30.0,91,50,16,0.00,0.00,4,2,10,0.00
2013-10-20,82.7,56.0,34.0,44.0,38.3,30.0,90,59,20,0.00,0.00,5,2,11,0.00
2013-10-21,77.2,52.9,37.8,49.9,42.3,33.8,97,72,32,0.00,0.00,5,2,11,0.00
2013-10-22,82.5,55.5,37.9,49.3,42.3,36.0,97,68,24,0.00,0.00,4,1,9,0.00
2013-10-23,79.5,52.7,35.8,51.8,42.1,31.9,97,73,28,0.00,0.00,5,2,10,0.00
2013-10-24,66.2,50.5,40.1,48.4,44.8,37.8,96,82,52,0.00,0.00,4,2,10,0.00
2013-10-25,75.1,51.5,33.5,48.8,41.4,31.8,95,73,35,0.00,0.00,5,2,9,0.00
2013-10-26,83.7,53.5,34.0,44.2,38.5,32.1,94,65,20,0.00,0.00,3,1,8,0.00
2013-10-27,64.2,48.7,34.7,47.6,40.8,31.6,97,76,51,0.00,0.00,5,2,14,0.00
2013-10-28,67.7,53.6,39.9,42.0,39.3,34.9,85,62,32,0.00,0.00,6,3,17,0.00
2013-10-29,65.2,51.4,36.0,45.0,41.1,32.6,90,70,45,0.00,0.00,4,2,9,0.00
2013-10-30,69.3,48.5,32.4,44.4,38.1,30.5,94,71,38,0.00,0.00,5,1,12,0.00
2013-10-31,76.0,53.6,33.5,44.9,39.8,31.6,92,64,31,0.00,0.00,4,1,9,0.00
2013-11-1,78.8,53.0,35.5,46.6,40.6,33.0,94,68,30,0.00,0.00,4,2,9,0.00
2013-11-2,73.7,54.5,36.2,49.5,40.1,33.5,93,63,29,0.00,0.00,8,4,17,0.00
2013-11-3,62.1,52.8,45.6,37.6,33.2,28.1,68,49,28,0.00,0.00,8,5,24,0.00
2013-11-4,71.0,54.5,42.5,36.7,32.5,26.6,70,47,20,0.00,0.00,9,4,21,0.00
2013-11-5,78.2,56.8,42.6,42.1,36.8,34.1,78,51,25,0.00,0.00,6,3,14,0.00
2013-11-6,76.9,56.7,39.0,46.9,40.1,35.4,90,58,30,0.00,0.00,4,2,10,0.00
2013-11-7,77.0,58.0,43.2,48.5,41.3,37.1,80,58,26,0.00,0.00,4,2,10,0.00
2013-11-8,77.3,57.8,37.1,49.3,43.4,31.8,85,63,29,0.00,0.00,7,3,14,0.00
2013-11-9,76.8,51.0,32.1,45.1,37.6,28.9,92,65,30,0.00,0.00,5,2,11,0.00
2013-11-10,67.0,48.2,34.5,47.8,40.7,32.8,94,78,50,0.00,0.00,5,2,11,0.00
2013-11-11,67.2,51.4,35.1,45.3,43.0,33.4,97,76,44,0.00,0.00,4,2,9,0.00
2013-11-12,76.2,57.5,41.8,46.1,43.0,37.3,84,62,29,0.00,0.00,6,2,10,0.00
2013-11-13,82.5,57.6,39.9,49.5,43.7,36.4,93,65,28,0.00,0.00,5,2,10,0.00
2013-11-14,70.0,52.2,40.1,48.8,41.3,32.2,97,71,40,0.00,0.00,8,3,18,0.00
2013-11-15,68.9,54.7,45.9,38.8,37.1,33.8,74,54,30,0.00,0.00,8,4,16,0.00
2013-11-16,66.3,54.0,45.0,44.8,40.5,34.1,89,62,42,0.00,0.00,8,5,19,0.00
2013-11-17,63.5,46.7,32.9,44.1,38.9,31.6,96,77,46,0.00,0.00,4,1,9,0.00
2013-11-18,58.7,46.5,31.3,47.5,39.7,28.7,95,79,53,0.00,0.00,5,2,10,0.00
2013-11-19,55.1,52.5,48.9,54.1,51.5,47.5,97,96,95,0.00,0.00,5,2,9,0.10
2013-11-20,60.7,54.8,48.0,56.8,53.2,46.5,98,95,78,0.00,0.00,4,2,8,0.38
2013-11-21,64.8,56.4,48.5,48.2,29.6,9.2,96,49,13,0.00,0.00,16,6,39,0.00
2013-11-22,74.3,66.0,56.6,12.5,6.8,0.1,14,10,7,0.00,0.00,12,7,30,0.00
2013-11-23,72.8,59.4,33.7,34.6,20.4,7.4,88,30,9,0.00,0.00,9,4,24,0.00
2013-11-24,65.2,43.3,27.0,36.7,31.9,25.0,93,70,31,0.00,0.00,4,1,8,0.00
2013-11-25,65.3,44.3,29.1,38.3,34.1,27.5,95,72,33,0.00,0.00,4,2,9,0.00
2013-11-26,64.3,46.0,33.0,40.3,36.0,31.3,94,72,33,0.00,0.00,4,1,9,0.00
2013-11-27,66.7,47.4,32.6,43.6,37.7,31.1,95,73,39,0.00,0.00,4,2,8,0.00
2013-11-28,73.8,49.2,34.3,42.3,38.1,32.8,95,71,27,0.00,0.00,5,2,10,0.00
2013-11-29,70.3,47.4,32.1,42.2,36.8,30.8,95,73,33,0.00,0.00,5,2,9,0.00
2013-11-30,70.0,49.4,34.6,42.8,39.1,33.0,95,72,36,0.00,0.00,4,1,7,0.00
2013-12-1,73.5,51.7,35.7,47.1,41.2,34.0,95,72,33,0.00,0.00,4,2,10,0.00
2013-12-2,64.7,54.1,44.4,49.3,46.0,41.7,91,76,50,0.00,0.00,10,4,20,0.00
2013-12-3,56.2,48.2,38.0,48.0,30.9,23.8,87,53,29,0.00,0.00,8,5,20,0.00
2013-12-4,54.6,38.4,24.5,29.4,24.8,17.9,87,63,24,0.00,0.00,4,2,9,0.00
2013-12-5,50.2,33.1,20.9,25.2,21.1,15.1,87,66,27,0.00,0.00,5,2,9,0.00
2013-12-6,46.2,33.8,19.5,38.8,27.3,16.6,96,79,40,0.00,0.00,6,2,11,0.00
2013-12-7,45.2,35.7,25.3,37.7,27.0,21.8,95,74,41,0.00,0.00,10,3,23,0.00
2013-12-8,48.4,33.5,24.7,25.7,22.2,17.9,89,67,30,0.00,0.00,5,2,11,0.00
2013-12-9,52.5,35.4,23.9,26.0,22.8,19.5,86,63,33,0.00,0.00,5,2,13,0.00
2013-12-10,56.5,34.1,19.1,29.8,23.7,16.6,92,71,29,0.00,0.00,4,1,9,0.00
2013-12-11,59.8,36.8,22.1,33.5,27.2,19.9,93,73,33,0.00,0.00,4,1,9,0.00
2013-12-12,56.4,32.1,22.7,33.5,26.1,20.6,93,81,37,0.00,0.00,3,1,5,0.00
2013-12-13,65.8,44.4,23.0,36.6,31.2,20.9,93,65,28,0.00,0.00,4,2,9,0.00
2013-12-14,66.3,42.9,29.0,40.9,33.8,27.2,95,74,37,0.00,0.00,4,1,8,0.00
2013-12-15,65.4,41.2,25.1,41.0,32.4,23.5,95,75,33,0.00,0.00,3,1,6,0.00
2013-12-16,66.5,43.8,28.2,38.7,33.4,26.5,94,71,31,0.00,0.00,6,2,12,0.00
2013-12-17,69.3,45.4,26.6,40.9,33.6,25.0,95,69,28,0.00,0.00,3,1,7,0.00
2013-12-18,62.5,45.8,29.2,40.2,35.1,27.5,94,70,36,0.00,0.00,9,3,16,0.00
2013-12-19,62.7,49.2,40.1,37.1,30.1,18.5,73,52,18,0.00,0.00,8,5,20,0.00
2013-12-20,64.5,49.3,36.9,36.5,26.2,16.1,62,44,17,0.00,0.00,9,5,16,0.00
2013-12-21,66.9,54.1,47.0,44.3,42.6,36.5,83,67,42,0.00,0.00,8,5,18,0.00
2013-12-22,72.9,51.1,35.7,43.9,40.0,33.2,92,69,33,0.00,0.00,5,2,10,0.00
2013-12-23,69.1,45.8,29.9,43.6,36.6,28.4,95,75,37,0.00,0.00,4,2,9,0.00
2013-12-24,73.7,46.7,31.6,46.0,37.3,29.7,95,75,34,0.00,0.00,5,2,10,0.00
2013-12-25,33.0,31.4,29.5,31.3,29.8,28.1,95,94,92,0.00,0.00,2,2,5,0.00
2013-12-26,73.3,47.0,25.3,34.4,28.6,23.1,92,56,18,0.00,0.00,5,2,10,0.00
2013-12-27,58.5,40.0,26.5,30.8,27.3,23.6,90,65,32,0.00,0.00,4,2,10,0.00
2013-12-28,70.7,45.8,23.2,31.5,26.5,20.9,93,55,21,0.00,0.00,7,3,15,0.00
2013-12-29,68.1,47.0,29.9,29.8,26.5,23.2,78,49,19,0.00,0.00,6,2,12,0.00
2013-12-30,64.7,41.8,24.6,33.2,27.1,21.4,89,61,25,0.00,0.00,6,2,9,0.00
2013-12-31,64.3,42.8,30.4,34.2,30.5,26.3,88,66,31,0.00,0.00,5,2,8,0.00
2014-1-1,67.2,42.6,26.1,32.5,27.8,23.2,91,62,24,0.00,0.00,5,2,8,0.00
2014-1-2,67.4,44.7,29.0,38.3,32.2,25.3,90,66,32,0.00,0.00,4,2,7,0.00